IRIDIUM 33 DEB, 46979

Orbit data source: Space-Track

IRIDIUM 33 DEB, 46979 is space debris in LEO originally from a launch on Sun, 14 Sep 1997 UTC launched from the Tyuratam Missile And Space Complex (TTMTR). The debris from Iridium 33, an American commercial communications satellite, has been tracked extensively since its accidental collision with the defunct Russian satellite Cosmos 2251 in 2009. This event, occurring at high speed in low Earth orbit (LEO), generated thousands of pieces of space debris, significantly increasing the risk of further collisions. The Iridium 33 debris cloud has impacted space traffic management and orbital debris mitigation strategies, making it a subject of ongoing study in space situational awareness.

Loading next visibility...
Identifier
46979, 1997-051ACM
Orbit
LEO
Country
Flag of USUS
Related business
Manufacturer
Unknown
Mission
Spacecraft
Bus & Motor
Unknown
Mass
Unknown
Launch date (UTC)
1997-09-14 (29 years ago)
Launch vehicle
Unknown
Launch site
Tyuratam Missile And Space Complex (TTMTR)
Object type
Payload
Rocket body
Debris
Shape & HBR
Unknown shape, 0.1 m
Radar Cross Section
Small (<0.1 m²)

Expand to show TLE details & history
Last TLE update: 2 months ago

TLE from 2 months ago
0 IRIDIUM 33 DEB
1 46979U 97051ACM 26024.72896699  .00075585  00000-0  70538-2 0  9992
2 46979  86.3324  28.5188 0029146  75.5025 284.9433 14.93512669360694
Epoch: 2026-01-24T17:29Z
TLE epoch observation values (Epoch: 2026-01-24T17:29:42.747Z)
Latitude
-0.00014°
Longitude
2.04143°
Altitude
584.946 km
Speed
7.571 km/s
True Right ascension
01h 54m 04s
True Declination
0° 00' 01"
Sunlit
Object was in daylight at epoch
Visualization orbit readout
Latitude
Unknown
Longitude
Unknown
Altitude
Unknown
Speed
Unknown
Apparent Right ascension
Unknown
Apparent Declination
Unknown
Sunlit
N/A
Visualization observer readout
Local Sidereal Time
12:19:55
Azimuth
Unknown
Elevation
Unknown
Doppler factor
Unknown
Orbital elements
Apogee altitude
604.167 km
Perigee altitude
563.584 km
Semi-major axis
6,962.013 km
Eccentricity
0.00291
Inclination
86.3324°
RAAN
28.5188°
Arg. of periapsis
75.5025°
True anomaly
284.6203°
Mean anomaly
284.9433°
Eccentric anomaly
284.78183°
Mean motion
3.73629 °/min
Orbital period
96.35 mins
BSTAR
0.0070538
Loading maneuver chart data...
Computing Atmospheric mass density...

Documentation

Showing up to 5 results
|